Time,TemperatureF,DewpointF,PressureIn,WindDirection,WindDirectionDegrees,WindSpeedMPH,WindSpeedGustMPH,Humidity,HourlyPrecipIn,Conditions,Clouds,dailyrainin,SoftwareType,DateUTC
2013-06-23 00:04:00,57.7,52.9,29.66,SE,135,4.5,12.1,84,0.00,,,0.00,pywws,2013-06-22 23:04:00,
2013-06-23 00:10:00,57.4,53.2,29.66,NW,315,2.2,3.8,86,0.00,,,0.00,pywws,2013-06-22 23:10:00,
2013-06-23 00:15:00,57.0,53.2,29.66,SW,225,1.6,3.1,87,0.00,,,0.00,pywws,2013-06-22 23:15:00,
2013-06-23 00:21:00,56.8,53.3,29.66,SW,225,3.8,6.9,88,0.00,,,0.00,pywws,2013-06-22 23:21:00,
2013-06-23 00:26:00,56.7,53.5,29.66,South,180,1.6,4.5,89,0.00,,,0.00,pywws,2013-06-22 23:26:00,
2013-06-23 00:32:00,56.7,53.5,29.66,WSW,248,2.2,6.0,89,0.00,,,0.00,pywws,2013-06-22 23:32:00,
2013-06-23 00:38:00,56.8,53.6,29.66,NW,315,2.2,4.5,89,0.00,,,0.00,pywws,2013-06-22 23:38:00,
2013-06-23 00:43:00,57.0,53.5,29.66,SSE,158,3.1,7.6,88,0.00,,,0.00,pywws,2013-06-22 23:43:00,
2013-06-23 00:49:00,57.0,53.5,29.65,SE,135,2.2,6.0,88,0.00,,,0.00,pywws,2013-06-22 23:49:00,
2013-06-23 00:54:00,57.2,53.7,29.66,NNW,338,3.8,7.6,88,0.00,,,0.00,pywws,2013-06-22 23:54:00,
2013-06-23 00:59:00,57.2,53.4,29.66,SW,225,5.4,8.3,87,0.00,,,0.00,pywws,2013-06-22 23:59:00,
2013-06-23 01:05:00,57.4,53.5,29.66,South,180,3.8,8.3,87,0.00,,,0.00,pywws,2013-06-23 00:05:00,
2013-06-23 01:10:00,57.6,53.4,29.66,SW,225,4.5,10.7,86,0.00,,,0.00,pywws,2013-06-23 00:10:00,
2013-06-23 01:16:00,57.6,53.4,29.66,SW,225,3.8,8.3,86,0.00,,,0.00,pywws,2013-06-23 00:16:00,
2013-06-23 01:21:00,57.6,53.4,29.65,South,180,3.1,5.4,86,0.00,,,0.00,pywws,2013-06-23 00:21:00,
2013-06-23 01:26:00,57.4,53.2,29.65,East,90,6.9,13.0,86,0.00,,,0.00,pywws,2013-06-23 00:26:00,
2013-06-23 01:32:00,57.6,53.4,29.65,West,270,3.8,12.1,86,0.00,,,0.00,pywws,2013-06-23 00:32:00,
2013-06-23 01:37:00,57.6,53.4,29.65,SE,135,4.5,9.2,86,0.00,,,0.00,pywws,2013-06-23 00:37:00,
2013-06-23 01:42:00,57.6,53.4,29.66,South,180,3.1,6.0,86,0.00,,,0.00,pywws,2013-06-23 00:42:00,
2013-06-23 01:48:00,57.4,53.2,29.66,SW,225,3.1,6.9,86,0.00,,,0.00,pywws,2013-06-23 00:48:00,
2013-06-23 01:53:00,57.4,53.5,29.66,South,180,3.8,9.8,87,0.00,,,0.00,pywws,2013-06-23 00:53:00,
2013-06-23 01:58:00,57.2,53.4,29.66,SW,225,3.1,6.9,87,0.00,,,0.00,pywws,2013-06-23 00:58:00,
2013-06-23 02:04:00,57.2,53.7,29.66,West,270,3.8,10.7,88,0.00,,,0.00,pywws,2013-06-23 01:04:00,
2013-06-23 02:09:00,57.0,53.5,29.65,SW,225,3.8,6.9,88,0.00,,,0.00,pywws,2013-06-23 01:09:00,
2013-06-23 02:14:00,56.8,53.6,29.65,NW,315,3.8,9.8,89,0.00,,,0.00,pywws,2013-06-23 01:14:00,
2013-06-23 02:20:00,56.8,53.6,29.65,SW,225,3.1,5.4,89,0.00,,,0.00,pywws,2013-06-23 01:20:00,
2013-06-23 02:25:00,56.8,53.6,29.65,SE,135,4.5,9.2,89,0.00,,,0.00,pywws,2013-06-23 01:25:00,
2013-06-23 02:30:00,56.8,53.9,29.65,WNW,293,3.1,5.4,90,0.00,,,0.00,pywws,2013-06-23 01:30:00,
2013-06-23 02:36:00,56.7,53.8,29.65,South,180,3.1,7.6,90,0.00,,,0.00,pywws,2013-06-23 01:36:00,
2013-06-23 02:41:00,56.7,53.8,29.65,WNW,293,2.2,7.6,90,0.00,,,0.00,pywws,2013-06-23 01:41:00,
2013-06-23 02:46:00,56.7,53.8,29.66,SE,135,2.2,6.0,90,0.00,,,0.00,pywws,2013-06-23 01:46:00,
2013-06-23 02:52:00,56.7,53.8,29.66,South,180,2.2,4.5,90,0.00,,,0.00,pywws,2013-06-23 01:52:00,
2013-06-23 02:57:00,56.7,53.8,29.66,SSE,158,3.1,8.3,90,0.00,,,0.00,pywws,2013-06-23 01:57:00,
2013-06-23 03:02:00,56.8,53.9,29.66,East,90,1.6,6.0,90,0.00,,,0.00,pywws,2013-06-23 02:02:00,
2013-06-23 03:08:00,56.8,53.9,29.66,SE,135,3.1,9.2,90,0.00,,,0.00,pywws,2013-06-23 02:08:00,
2013-06-23 03:13:00,56.7,53.8,29.66,South,180,3.1,6.0,90,0.00,,,0.00,pywws,2013-06-23 02:13:00,
2013-06-23 03:18:00,56.7,53.8,29.66,North,0,3.1,6.0,90,0.00,,,0.00,pywws,2013-06-23 02:18:00,
2013-06-23 03:24:00,56.7,53.8,29.65,South,180,3.1,6.0,90,0.00,,,0.00,pywws,2013-06-23 02:24:00,
2013-06-23 03:29:00,56.8,54.2,29.65,NW,315,3.8,8.3,91,0.00,,,0.00,pywws,2013-06-23 02:29:00,
2013-06-23 03:34:00,56.8,53.9,29.65,NW,315,1.6,6.0,90,0.00,,,0.00,pywws,2013-06-23 02:34:00,
2013-06-23 03:40:00,57.0,54.1,29.65,West,270,3.8,9.2,90,0.00,,,0.00,pywws,2013-06-23 02:40:00,
2013-06-23 03:45:00,57.0,54.1,29.66,South,180,2.2,6.9,90,0.00,,,0.00,pywws,2013-06-23 02:45:00,
2013-06-23 03:50:00,57.0,54.1,29.66,South,180,1.6,3.8,90,0.00,,,0.00,pywws,2013-06-23 02:50:00,
2013-06-23 03:56:00,56.8,54.2,29.66,NNW,338,3.8,10.7,91,0.00,,,0.00,pywws,2013-06-23 02:56:00,
2013-06-23 04:01:00,56.5,54.2,29.66,West,270,3.1,10.7,92,0.00,,,0.00,pywws,2013-06-23 03:01:00,
2013-06-23 04:07:00,56.3,54.6,29.67,SW,225,2.2,4.5,94,0.00,,,0.00,pywws,2013-06-23 03:07:00,
2013-06-23 04:12:00,56.1,54.7,29.67,South,180,3.1,7.6,95,0.00,,,0.00,pywws,2013-06-23 03:12:00,
2013-06-23 04:17:00,56.1,54.7,29.67,SW,225,5.4,11.4,95,0.00,,,0.00,pywws,2013-06-23 03:17:00,
2013-06-23 04:22:00,56.1,54.7,29.67,East,90,3.8,6.9,95,0.00,,,0.00,pywws,2013-06-23 03:22:00,
2013-06-23 04:28:00,56.1,55.0,29.67,SSE,158,5.4,9.8,96,0.00,,,0.00,pywws,2013-06-23 03:28:00,
2013-06-23 04:33:00,56.1,54.7,29.67,West,270,5.4,9.8,95,0.00,,,0.00,pywws,2013-06-23 03:33:00,
2013-06-23 04:38:00,56.1,54.7,29.66,South,180,4.5,10.7,95,0.00,,,0.00,pywws,2013-06-23 03:38:00,
2013-06-23 04:44:00,56.1,54.7,29.67,SSE,158,3.1,4.5,95,0.00,,,0.00,pywws,2013-06-23 03:44:00,
2013-06-23 04:49:00,56.3,54.9,29.67,SW,225,2.2,5.4,95,0.00,,,0.00,pywws,2013-06-23 03:49:00,
2013-06-23 04:54:00,56.3,54.9,29.67,SW,225,4.5,9.8,95,0.00,,,0.00,pywws,2013-06-23 03:54:00,
2013-06-23 05:00:00,56.3,54.6,29.68,East,90,3.1,5.4,94,0.00,,,0.00,pywws,2013-06-23 04:00:00,
2013-06-23 05:01:00,56.3,54.6,29.68,South,180,4.5,10.7,94,0.00,,,0.00,pywws,2013-06-23 04:01:00,
2013-06-23 05:02:00,56.3,54.6,29.67,South,180,2.2,7.6,94,0.00,,,0.00,pywws,2013-06-23 04:02:00,
2013-06-23 05:06:00,56.5,54.8,29.68,West,270,3.8,7.6,94,0.00,,,0.00,pywws,2013-06-23 04:06:00,
2013-06-23 05:08:00,56.5,54.8,29.68,SE,135,3.8,8.3,94,0.00,,,0.00,pywws,2013-06-23 04:08:00,
2013-06-23 05:14:00,56.5,54.8,29.67,West,270,3.8,7.6,94,0.00,,,0.00,pywws,2013-06-23 04:14:00,
2013-06-23 05:19:00,56.5,54.8,29.68,West,270,3.1,8.3,94,0.00,,,0.00,pywws,2013-06-23 04:19:00,
2013-06-23 05:24:00,56.7,54.7,29.68,West,270,3.1,9.2,93,0.00,,,0.00,pywws,2013-06-23 04:24:00,
2013-06-23 05:29:00,56.5,54.5,29.68,SW,225,4.5,9.8,93,0.00,,,0.00,pywws,2013-06-23 04:29:00,
2013-06-23 05:34:00,56.7,54.7,29.68,South,180,3.8,9.8,93,0.00,,,0.00,pywws,2013-06-23 04:34:00,
2013-06-23 05:39:00,56.7,54.7,29.69,North,0,2.2,4.5,93,0.00,,,0.00,pywws,2013-06-23 04:39:00,
2013-06-23 05:45:00,56.8,54.5,29.69,West,270,1.6,3.8,92,0.00,,,0.00,pywws,2013-06-23 04:45:00,
2013-06-23 05:50:00,57.0,54.7,29.69,SW,225,3.1,8.3,92,0.00,,,0.00,pywws,2013-06-23 04:50:00,
2013-06-23 05:55:00,57.0,54.7,29.69,East,90,3.8,8.3,92,0.00,,,0.00,pywws,2013-06-23 04:55:00,
2013-06-23 06:01:00,57.0,54.4,29.70,SE,135,2.2,5.4,91,0.00,,,0.00,pywws,2013-06-23 05:01:00,
2013-06-23 06:06:00,57.2,54.6,29.69,West,270,2.2,3.8,91,0.00,,,0.00,pywws,2013-06-23 05:06:00,
2013-06-23 06:12:00,57.4,54.8,29.69,SE,135,1.6,4.5,91,0.00,,,0.00,pywws,2013-06-23 05:12:00,
2013-06-23 06:18:00,57.6,54.6,29.70,SE,135,1.6,5.4,90,0.00,,,0.00,pywws,2013-06-23 05:18:00,
2013-06-23 06:23:00,57.7,54.8,29.70,South,180,3.8,6.9,90,0.00,,,0.00,pywws,2013-06-23 05:23:00,
2013-06-23 06:29:00,57.9,54.7,29.70,South,180,2.2,5.4,89,0.00,,,0.00,pywws,2013-06-23 05:29:00,
2013-06-23 06:34:00,57.9,54.4,29.70,SW,225,4.5,9.2,88,0.00,,,0.00,pywws,2013-06-23 05:34:00,
2013-06-23 06:39:00,58.3,54.7,29.70,SE,135,6.0,9.8,88,0.00,,,0.00,pywws,2013-06-23 05:39:00,
2013-06-23 06:44:00,58.6,54.8,29.70,North,0,4.5,9.2,87,0.00,,,0.00,pywws,2013-06-23 05:44:00,
2013-06-23 06:49:00,58.8,54.6,29.70,North,0,3.1,8.3,86,0.00,,,0.00,pywws,2013-06-23 05:49:00,
2013-06-23 06:54:00,59.2,54.7,29.70,SW,225,1.6,6.9,85,0.00,,,0.00,pywws,2013-06-23 05:54:00,
2013-06-23 06:59:00,59.5,55.0,29.71,NW,315,2.2,6.0,85,0.00,,,0.00,pywws,2013-06-23 05:59:00,
2013-06-23 07:01:00,59.9,54.7,29.71,SE,135,3.8,13.0,83,0.00,,,0.00,pywws,2013-06-23 06:01:00,
2013-06-23 07:06:00,60.1,54.9,29.71,South,180,3.8,9.2,83,0.00,,,0.00,pywws,2013-06-23 06:06:00,
2013-06-23 07:12:00,60.8,54.6,29.71,West,270,1.6,4.5,80,0.00,,,0.00,pywws,2013-06-23 06:12:00,
2013-06-23 07:18:00,61.0,54.4,29.72,SW,225,3.8,15.2,79,0.00,,,0.00,pywws,2013-06-23 06:18:00,
2013-06-23 07:23:00,61.0,54.1,29.72,NW,315,3.8,8.3,78,0.00,,,0.00,pywws,2013-06-23 06:23:00,
2013-06-23 07:29:00,60.8,54.2,29.72,NW,315,3.8,7.6,79,0.00,,,0.00,pywws,2013-06-23 06:29:00,
2013-06-23 07:34:00,60.1,53.9,29.72,West,270,2.2,4.5,80,0.00,,,0.00,pywws,2013-06-23 06:34:00,
2013-06-23 07:39:00,60.6,54.1,29.72,SE,135,3.1,5.4,79,0.00,,,0.00,pywws,2013-06-23 06:39:00,
2013-06-23 07:44:00,62.6,54.9,29.73,NW,315,3.1,10.7,76,0.00,,,0.00,pywws,2013-06-23 06:44:00,
2013-06-23 07:49:00,62.2,53.8,29.73,SSE,158,2.2,5.4,74,0.00,,,0.00,pywws,2013-06-23 06:49:00,
2013-06-23 07:54:00,61.7,54.1,29.73,SE,135,2.2,5.4,76,0.00,,,0.00,pywws,2013-06-23 06:54:00,
2013-06-23 07:59:00,61.3,53.7,29.73,West,270,4.5,9.8,76,0.00,,,0.00,pywws,2013-06-23 06:59:00,
2013-06-23 08:04:00,61.5,53.5,29.73,West,270,3.8,6.9,75,0.00,,,0.00,pywws,2013-06-23 07:04:00,
2013-06-23 08:09:00,61.7,53.7,29.73,East,90,5.4,7.6,75,0.00,,,0.00,pywws,2013-06-23 07:09:00,
2013-06-23 08:14:00,61.5,53.5,29.73,NW,315,3.8,9.8,75,0.00,,,0.00,pywws,2013-06-23 07:14:00,
2013-06-23 08:20:00,61.3,53.7,29.73,SW,225,3.1,9.8,76,0.00,,,0.00,pywws,2013-06-23 07:20:00,
2013-06-23 08:26:00,61.5,53.9,29.74,SE,135,3.8,8.3,76,0.00,,,0.00,pywws,2013-06-23 07:26:00,
2013-06-23 08:31:00,61.7,53.7,29.74,North,0,3.8,9.8,75,0.00,,,0.00,pywws,2013-06-23 07:31:00,
2013-06-23 08:37:00,62.6,54.2,29.74,West,270,3.8,6.9,74,0.00,,,0.00,pywws,2013-06-23 07:37:00,
2013-06-23 08:42:00,63.7,54.5,29.73,SW,225,3.1,6.0,72,0.00,,,0.00,pywws,2013-06-23 07:42:00,
2013-06-23 08:48:00,65.8,53.7,29.74,WNW,293,5.4,9.8,65,0.00,,,0.00,pywws,2013-06-23 07:48:00,
2013-06-23 08:54:00,66.7,53.7,29.74,NW,315,4.5,9.2,63,0.00,,,0.00,pywws,2013-06-23 07:54:00,
2013-06-23 08:59:00,65.3,53.6,29.74,North,0,3.1,7.6,66,0.00,,,0.00,pywws,2013-06-23 07:59:00,
2013-06-23 09:04:00,64.6,53.8,29.74,East,90,3.1,8.3,68,0.00,,,0.00,pywws,2013-06-23 08:04:00,
2013-06-23 09:09:00,64.6,53.4,29.74,SW,225,6.9,12.1,67,0.00,,,0.00,pywws,2013-06-23 08:09:00,
2013-06-23 09:14:00,63.7,53.3,29.75,SW,225,3.8,7.6,69,0.00,,,0.00,pywws,2013-06-23 08:14:00,
2013-06-23 09:19:00,63.5,53.5,29.75,East,90,3.1,7.6,70,0.00,,,0.00,pywws,2013-06-23 08:19:00,
2013-06-23 09:25:00,63.0,53.0,29.75,NE,45,2.2,7.6,70,0.00,,,0.00,pywws,2013-06-23 08:25:00,
2013-06-23 09:30:00,62.4,52.5,29.75,NW,315,3.1,5.4,70,0.00,,,0.00,pywws,2013-06-23 08:30:00,
2013-06-23 09:35:00,62.6,53.1,29.75,SW,225,5.4,12.1,71,0.00,,,0.00,pywws,2013-06-23 08:35:00,
2013-06-23 09:41:00,63.1,53.6,29.75,West,270,3.1,6.0,71,0.00,,,0.00,pywws,2013-06-23 08:41:00,
2013-06-23 09:46:00,64.2,53.4,29.75,NW,315,5.4,14.5,68,0.00,,,0.00,pywws,2013-06-23 08:46:00,
2013-06-23 09:52:00,64.2,53.8,29.75,West,270,3.8,8.3,69,0.00,,,0.00,pywws,2013-06-23 08:52:00,
2013-06-23 09:58:00,64.6,53.4,29.75,SW,225,3.1,6.9,67,0.00,,,0.00,pywws,2013-06-23 08:58:00,
2013-06-23 10:03:00,64.4,53.2,29.75,East,90,2.2,6.9,67,0.00,,,0.00,pywws,2013-06-23 09:03:00,
2013-06-23 10:09:00,64.2,52.6,29.76,North,0,6.0,11.4,66,0.00,,,0.00,pywws,2013-06-23 09:09:00,
2013-06-23 10:14:00,63.9,53.1,29.75,North,0,2.2,5.4,68,0.00,,,0.00,pywws,2013-06-23 09:14:00,
2013-06-23 10:19:00,64.6,53.0,29.76,NE,45,6.9,13.0,66,0.00,,,0.00,pywws,2013-06-23 09:19:00,
2013-06-23 10:25:00,64.6,52.1,29.76,SW,225,8.3,16.8,64,0.00,,,0.00,pywws,2013-06-23 09:25:00,
2013-06-23 10:30:00,66.4,52.5,29.76,North,0,7.6,15.9,61,0.00,,,0.00,pywws,2013-06-23 09:30:00,
2013-06-23 10:36:00,67.1,52.3,29.76,South,180,8.3,13.0,59,0.00,,,0.00,pywws,2013-06-23 09:36:00,
2013-06-23 10:42:00,65.7,51.8,29.77,SE,135,2.2,5.4,61,0.00,,,0.00,pywws,2013-06-23 09:42:00,
2013-06-23 10:47:00,64.8,51.4,29.77,NW,315,5.4,9.8,62,0.00,,,0.00,pywws,2013-06-23 09:47:00,
2013-06-23 10:53:00,63.7,50.8,29.77,West,270,6.9,16.8,63,0.00,,,0.00,pywws,2013-06-23 09:53:00,
2013-06-23 10:58:00,63.3,50.9,29.77,NW,315,5.4,10.7,64,0.00,,,0.00,pywws,2013-06-23 09:58:00,
2013-06-23 11:04:00,63.3,51.3,29.78,South,180,3.8,9.8,65,0.00,,,0.00,pywws,2013-06-23 10:04:00,
2013-06-23 11:09:00,63.7,51.7,29.78,West,270,3.8,7.6,65,0.00,,,0.00,pywws,2013-06-23 10:09:00,
2013-06-23 11:14:00,63.7,51.3,29.78,SW,225,4.5,12.1,64,0.00,,,0.00,pywws,2013-06-23 10:14:00,
2013-06-23 11:19:00,63.7,51.7,29.78,NE,45,4.5,9.8,65,0.00,,,0.00,pywws,2013-06-23 10:19:00,
2013-06-23 11:24:00,63.9,51.9,29.78,West,270,6.9,12.1,65,0.00,,,0.00,pywws,2013-06-23 10:24:00,
2013-06-23 11:29:00,63.3,52.2,29.78,North,0,3.1,10.7,67,0.00,,,0.00,pywws,2013-06-23 10:29:00,
2013-06-23 11:34:00,62.8,51.2,29.78,South,180,6.0,13.0,66,0.00,,,0.00,pywws,2013-06-23 10:34:00,
2013-06-23 11:39:00,62.8,51.7,29.78,NW,315,3.1,7.6,67,0.00,,,0.00,pywws,2013-06-23 10:39:00,
2013-06-23 11:44:00,64.0,52.4,29.79,SW,225,5.4,9.8,66,0.00,,,0.00,pywws,2013-06-23 10:44:00,
2013-06-23 11:49:00,63.7,51.3,29.78,NW,315,3.1,9.8,64,0.00,,,0.00,pywws,2013-06-23 10:49:00,
2013-06-23 11:54:00,63.1,51.6,29.79,SW,225,6.0,15.2,66,0.00,,,0.00,pywws,2013-06-23 10:54:00,
2013-06-23 11:59:00,62.4,52.5,29.79,WNW,293,5.4,9.2,70,0.00,,,0.00,pywws,2013-06-23 10:59:00,
2013-06-23 12:04:00,63.1,53.6,29.79,SSE,158,6.0,15.9,71,0.00,,,0.00,pywws,2013-06-23 11:04:00,
2013-06-23 12:10:00,66.2,53.2,29.79,SSE,158,4.5,10.7,63,0.00,,,0.00,pywws,2013-06-23 11:10:00,
2013-06-23 12:15:00,67.6,52.3,29.79,South,180,5.4,9.8,58,0.00,,,0.00,pywws,2013-06-23 11:15:00,
2013-06-23 12:21:00,66.6,52.7,29.79,NW,315,4.5,6.9,61,0.00,,,0.00,pywws,2013-06-23 11:21:00,
2013-06-23 12:26:00,65.1,51.8,29.79,NW,315,4.5,7.6,62,0.00,,,0.00,pywws,2013-06-23 11:26:00,
2013-06-23 12:32:00,65.1,52.2,29.79,SE,135,4.5,10.7,63,0.00,,,0.00,pywws,2013-06-23 11:32:00,
2013-06-23 12:38:00,65.8,52.4,29.80,West,270,3.1,6.9,62,0.00,,,0.00,pywws,2013-06-23 11:38:00,
2013-06-23 12:43:00,65.8,51.1,29.79,NW,315,5.4,13.6,59,0.00,,,0.00,pywws,2013-06-23 11:43:00,
2013-06-23 12:49:00,64.8,51.0,29.80,SE,135,3.1,6.0,61,0.00,,,0.00,pywws,2013-06-23 11:49:00,
2013-06-23 12:54:00,64.6,51.7,29.80,NW,315,3.1,9.2,63,0.00,,,0.00,pywws,2013-06-23 11:54:00,
2013-06-23 12:59:00,64.6,51.3,29.80,NW,315,4.5,7.6,62,0.00,,,0.00,pywws,2013-06-23 11:59:00,
2013-06-23 13:04:00,64.0,51.6,29.80,SW,225,6.0,15.2,64,0.00,,,0.00,pywws,2013-06-23 12:04:00,
2013-06-23 13:09:00,64.0,52.0,29.80,NW,315,6.0,11.4,65,0.00,,,0.00,pywws,2013-06-23 12:09:00,
2013-06-23 13:14:00,64.2,51.4,29.80,WNW,293,3.8,11.4,63,0.00,,,0.00,pywws,2013-06-23 12:14:00,
2013-06-23 13:19:00,63.9,51.4,29.81,SW,225,4.5,10.7,64,0.00,,,0.00,pywws,2013-06-23 12:19:00,
2013-06-23 13:24:00,64.6,51.7,29.81,North,0,2.2,7.6,63,0.00,,,0.00,pywws,2013-06-23 12:24:00,
2013-06-23 13:29:00,65.5,51.2,29.81,SW,225,4.5,10.7,60,0.00,,,0.00,pywws,2013-06-23 12:29:00,
2013-06-23 13:34:00,65.3,50.1,29.81,NW,315,6.9,14.5,58,0.00,,,0.00,pywws,2013-06-23 12:34:00,
2013-06-23 13:39:00,65.5,50.3,29.81,North,0,4.5,13.6,58,0.00,,,0.00,pywws,2013-06-23 12:39:00,
2013-06-23 13:45:00,65.3,50.6,29.81,North,0,4.5,10.7,59,0.00,,,0.00,pywws,2013-06-23 12:45:00,
2013-06-23 13:50:00,64.8,51.0,29.82,SW,225,3.1,8.3,61,0.00,,,0.00,pywws,2013-06-23 12:50:00,
2013-06-23 13:56:00,64.6,50.8,29.82,NW,315,5.4,8.3,61,0.00,,,0.00,pywws,2013-06-23 12:56:00,
2013-06-23 14:02:00,63.9,50.6,29.82,SE,135,3.1,10.7,62,0.00,,,0.00,pywws,2013-06-23 13:02:00,
2013-06-23 14:07:00,63.3,50.5,29.82,SW,225,5.4,9.8,63,0.00,,,0.00,pywws,2013-06-23 13:07:00,
2013-06-23 14:13:00,63.0,50.6,29.83,SW,225,5.4,11.4,64,0.00,,,0.00,pywws,2013-06-23 13:13:00,
2013-06-23 14:18:00,63.3,51.3,29.83,SW,225,2.2,9.8,65,0.00,,,0.00,pywws,2013-06-23 13:18:00,
2013-06-23 14:24:00,63.3,51.3,29.83,SW,225,5.4,9.8,65,0.00,,,0.00,pywws,2013-06-23 13:24:00,
2013-06-23 14:29:00,63.0,51.0,29.83,NW,315,3.8,7.6,65,0.00,,,0.00,pywws,2013-06-23 13:29:00,
2013-06-23 14:34:00,62.6,51.1,29.83,SW,225,3.1,8.3,66,0.00,,,0.00,pywws,2013-06-23 13:34:00,
2013-06-23 14:39:00,62.8,51.2,29.84,SW,225,7.6,13.6,66,0.00,,,0.00,pywws,2013-06-23 13:39:00,
2013-06-23 14:44:00,63.0,51.4,29.83,NW,315,3.1,6.9,66,0.00,,,0.00,pywws,2013-06-23 13:44:00,
2013-06-23 14:50:00,63.0,51.0,29.84,North,0,4.5,9.8,65,0.00,,,0.00,pywws,2013-06-23 13:50:00,
2013-06-23 14:55:00,63.1,51.2,29.84,West,270,4.5,10.7,65,0.00,,,0.00,pywws,2013-06-23 13:55:00,
2013-06-23 15:00:00,63.7,51.7,29.84,SW,225,3.8,14.5,65,0.00,,,0.00,pywws,2013-06-23 14:00:00,
2013-06-23 15:06:00,63.7,51.7,29.84,West,270,3.1,7.6,65,0.00,,,0.00,pywws,2013-06-23 14:06:00,
2013-06-23 15:11:00,63.5,51.1,29.84,North,0,4.5,10.7,64,0.00,,,0.00,pywws,2013-06-23 14:11:00,
2013-06-23 15:17:00,63.1,51.2,29.85,West,270,3.1,6.0,65,0.00,,,0.00,pywws,2013-06-23 14:17:00,
2013-06-23 15:22:00,63.1,51.2,29.84,SW,225,3.1,6.9,65,0.00,,,0.00,pywws,2013-06-23 14:22:00,
2013-06-23 15:28:00,63.3,51.3,29.85,North,0,3.8,6.9,65,0.00,,,0.00,pywws,2013-06-23 14:28:00,
2013-06-23 15:34:00,63.3,50.9,29.85,SW,225,3.1,6.9,64,0.00,,,0.00,pywws,2013-06-23 14:34:00,
2013-06-23 15:39:00,62.8,50.8,29.85,NW,315,8.3,14.5,65,0.00,,,0.00,pywws,2013-06-23 14:39:00,
2013-06-23 15:44:00,62.2,50.7,29.85,NW,315,3.8,8.3,66,0.00,,,0.00,pywws,2013-06-23 14:44:00,
2013-06-23 15:49:00,62.2,51.1,29.85,NW,315,4.5,9.2,67,0.00,,,0.00,pywws,2013-06-23 14:49:00,
2013-06-23 15:54:00,62.4,51.3,29.85,NW,315,3.1,6.9,67,0.00,,,0.00,pywws,2013-06-23 14:54:00,
2013-06-23 15:59:00,62.2,51.1,29.85,West,270,2.2,6.0,67,0.00,,,0.00,pywws,2013-06-23 14:59:00,
2013-06-23 16:04:00,62.1,51.4,29.85,SW,225,5.4,12.1,68,0.00,,,0.00,pywws,2013-06-23 15:04:00,
2013-06-23 16:10:00,62.2,51.9,29.85,NW,315,3.1,7.6,69,0.00,,,0.00,pywws,2013-06-23 15:10:00,
2013-06-23 16:15:00,63.1,52.0,29.85,SW,225,3.8,9.2,67,0.00,,,0.00,pywws,2013-06-23 15:15:00,
2013-06-23 16:21:00,64.8,53.5,29.85,South,180,2.2,5.4,67,0.00,,,0.00,pywws,2013-06-23 15:21:00,
2013-06-23 16:26:00,65.8,52.4,29.86,North,0,3.8,8.3,62,0.00,,,0.00,pywws,2013-06-23 15:26:00,
2013-06-23 16:32:00,65.3,51.5,29.86,NW,315,3.8,6.9,61,0.00,,,0.00,pywws,2013-06-23 15:32:00,
2013-06-23 16:38:00,65.1,50.9,29.85,WNW,293,5.4,11.4,60,0.00,,,0.00,pywws,2013-06-23 15:38:00,
2013-06-23 16:43:00,64.4,51.1,29.86,NW,315,4.5,8.3,62,0.00,,,0.00,pywws,2013-06-23 15:43:00,
2013-06-23 16:49:00,63.5,51.1,29.86,NE,45,2.2,4.5,64,0.00,,,0.00,pywws,2013-06-23 15:49:00,
2013-06-23 16:54:00,63.0,51.4,29.86,North,0,3.1,6.0,66,0.00,,,0.00,pywws,2013-06-23 15:54:00,
2013-06-23 16:59:00,62.8,51.2,29.87,NW,315,3.8,6.9,66,0.00,,,0.00,pywws,2013-06-23 15:59:00,
2013-06-23 17:05:00,62.4,51.3,29.87,North,0,2.2,4.5,67,0.00,,,0.00,pywws,2013-06-23 16:05:00,
2013-06-23 17:10:00,62.2,51.5,29.87,NNW,338,3.8,7.6,68,0.00,,,0.00,pywws,2013-06-23 16:10:00,
2013-06-23 17:15:00,62.4,51.7,29.87,NW,315,4.5,8.3,68,0.00,,,0.00,pywws,2013-06-23 16:15:00,
2013-06-23 17:21:00,62.8,51.7,29.87,SW,225,5.4,9.8,67,0.00,,,0.00,pywws,2013-06-23 16:21:00,
2013-06-23 17:26:00,62.8,51.7,29.88,NE,45,3.8,10.7,67,0.00,,,0.00,pywws,2013-06-23 16:26:00,
2013-06-23 17:32:00,63.1,52.0,29.88,NE,45,3.1,9.2,67,0.00,,,0.00,pywws,2013-06-23 16:32:00,
2013-06-23 17:38:00,63.3,52.2,29.88,NW,315,1.6,6.0,67,0.00,,,0.00,pywws,2013-06-23 16:38:00,
2013-06-23 17:43:00,63.1,51.2,29.88,West,270,3.1,11.4,65,0.00,,,0.00,pywws,2013-06-23 16:43:00,
2013-06-23 17:49:00,63.0,51.0,29.88,West,270,5.4,12.1,65,0.00,,,0.00,pywws,2013-06-23 16:49:00,
2013-06-23 17:54:00,63.1,51.6,29.88,WNW,293,3.1,5.4,66,0.00,,,0.00,pywws,2013-06-23 16:54:00,
2013-06-23 17:58:00,63.0,51.4,29.88,West,270,4.5,10.7,66,0.00,,,0.00,pywws,2013-06-23 16:58:00,
2013-06-23 17:59:00,63.0,51.4,29.89,NW,315,3.8,7.6,66,0.00,,,0.00,pywws,2013-06-23 16:59:00,
2013-06-23 18:00:00,63.0,51.4,29.89,SW,225,4.5,9.8,66,0.00,,,0.00,pywws,2013-06-23 17:00:00,
2013-06-23 18:06:00,62.8,51.2,29.89,West,270,0.7,2.2,66,0.00,,,0.00,pywws,2013-06-23 17:06:00,
2013-06-23 18:12:00,62.4,51.3,29.89,SE,135,3.8,9.2,67,0.00,,,0.00,pywws,2013-06-23 17:12:00,
2013-06-23 18:18:00,62.1,51.0,29.89,NE,45,3.1,11.4,67,0.00,,,0.00,pywws,2013-06-23 17:18:00,
2013-06-23 18:23:00,62.1,51.0,29.89,West,270,6.0,12.1,67,0.00,,,0.00,pywws,2013-06-23 17:23:00,
2013-06-23 18:29:00,62.1,51.0,29.89,West,270,4.5,11.4,67,0.00,,,0.00,pywws,2013-06-23 17:29:00,
2013-06-23 18:34:00,61.9,51.2,29.89,NE,45,2.2,5.4,68,0.00,,,0.00,pywws,2013-06-23 17:34:00,
2013-06-23 18:39:00,61.9,51.6,29.90,West,270,5.4,10.7,69,0.00,,,0.00,pywws,2013-06-23 17:39:00,
2013-06-23 18:44:00,61.7,51.4,29.89,SW,225,3.1,6.9,69,0.00,,,0.00,pywws,2013-06-23 17:44:00,
2013-06-23 18:49:00,61.9,51.6,29.90,West,270,6.0,10.7,69,0.00,,,0.00,pywws,2013-06-23 17:49:00,
2013-06-23 18:54:00,62.1,51.4,29.89,SW,225,5.4,8.3,68,0.00,,,0.00,pywws,2013-06-23 17:54:00,
2013-06-23 18:59:00,62.1,51.4,29.89,NW,315,2.2,5.4,68,0.00,,,0.00,pywws,2013-06-23 17:59:00,
2013-06-23 19:04:00,62.1,51.0,29.90,NW,315,5.4,7.6,67,0.00,,,0.00,pywws,2013-06-23 18:04:00,
2013-06-23 19:09:00,62.2,51.1,29.90,West,270,3.1,9.2,67,0.00,,,0.00,pywws,2013-06-23 18:09:00,
2013-06-23 19:14:00,62.4,51.3,29.90,West,270,3.8,13.0,67,0.00,,,0.00,pywws,2013-06-23 18:14:00,
2013-06-23 19:19:00,62.1,51.0,29.90,NW,315,2.2,5.4,67,0.00,,,0.00,pywws,2013-06-23 18:19:00,
2013-06-23 19:24:00,61.9,51.2,29.90,NW,315,3.1,6.9,68,0.00,,,0.00,pywws,2013-06-23 18:24:00,
2013-06-23 19:29:00,61.7,51.0,29.90,SW,225,2.2,4.5,68,0.00,,,0.00,pywws,2013-06-23 18:29:00,
2013-06-23 19:34:00,61.5,51.3,29.91,NE,45,1.6,3.1,69,0.00,,,0.00,pywws,2013-06-23 18:34:00,
2013-06-23 19:40:00,61.5,51.3,29.90,NW,315,4.5,12.1,69,0.00,,,0.00,pywws,2013-06-23 18:40:00,
2013-06-23 19:46:00,61.5,51.3,29.91,NW,315,1.6,4.5,69,0.00,,,0.00,pywws,2013-06-23 18:46:00,
2013-06-23 19:51:00,61.5,51.3,29.91,NW,315,1.6,3.8,69,0.00,,,0.00,pywws,2013-06-23 18:51:00,
2013-06-23 19:57:00,61.5,51.3,29.91,SW,225,2.2,4.5,69,0.00,,,0.00,pywws,2013-06-23 18:57:00,
2013-06-23 20:02:00,61.2,51.3,29.91,SW,225,3.8,7.6,70,0.00,,,0.00,pywws,2013-06-23 19:02:00,
2013-06-23 20:08:00,61.2,51.3,29.91,South,180,2.2,8.3,70,0.00,,,0.00,pywws,2013-06-23 19:08:00,
2013-06-23 20:14:00,61.0,50.7,29.92,SW,225,4.5,10.7,69,0.00,,,0.00,pywws,2013-06-23 19:14:00,
2013-06-23 20:19:00,60.8,51.7,29.93,NE,45,6.0,9.8,72,0.00,,,0.00,pywws,2013-06-23 19:19:00,
2013-06-23 20:24:00,59.0,52.5,29.94,NW,315,5.4,11.4,79,0.00,,,0.00,pywws,2013-06-23 19:24:00,
2013-06-23 20:29:00,57.7,52.6,29.94,NE,45,4.5,9.2,83,0.00,,,0.00,pywws,2013-06-23 19:29:00,
2013-06-23 20:34:00,57.2,53.0,29.94,East,90,3.1,6.9,86,0.00,,,0.00,pywws,2013-06-23 19:34:00,
2013-06-23 20:39:00,56.7,52.8,29.94,NW,315,3.8,9.2,87,0.00,,,0.00,pywws,2013-06-23 19:39:00,
2013-06-23 20:45:00,56.3,53.1,29.95,SW,225,3.8,7.6,89,0.00,,,0.00,pywws,2013-06-23 19:45:00,
2013-06-23 20:50:00,56.1,53.2,29.94,NW,315,0.7,2.2,90,0.00,,,0.00,pywws,2013-06-23 19:50:00,
2013-06-23 20:56:00,56.1,53.2,29.95,NW,315,3.8,6.0,90,0.00,,,0.00,pywws,2013-06-23 19:56:00,
2013-06-23 21:02:00,56.1,53.2,29.95,West,270,1.6,3.8,90,0.00,,,0.00,pywws,2013-06-23 20:02:00,
2013-06-23 21:07:00,56.1,52.9,29.95,West,270,1.6,3.1,89,0.00,,,0.00,pywws,2013-06-23 20:07:00,
2013-06-23 21:13:00,56.1,52.9,29.95,NE,45,1.6,3.1,89,0.00,,,0.00,pywws,2013-06-23 20:13:00,
2013-06-23 21:18:00,56.1,52.9,29.96,SW,225,1.6,3.8,89,0.00,,,0.00,pywws,2013-06-23 20:18:00,
2013-06-23 21:24:00,56.1,52.9,29.96,SW,225,1.6,4.5,89,0.00,,,0.00,pywws,2013-06-23 20:24:00,
2013-06-23 21:29:00,56.1,52.6,29.96,NW,315,3.1,6.0,88,0.00,,,0.00,pywws,2013-06-23 20:29:00,
2013-06-23 21:34:00,56.1,52.6,29.96,East,90,2.2,4.5,88,0.00,,,0.00,pywws,2013-06-23 20:34:00,
2013-06-23 21:39:00,55.9,52.7,29.97,NW,315,3.8,9.2,89,0.00,,,0.00,pywws,2013-06-23 20:39:00,
2013-06-23 21:44:00,55.8,52.6,29.97,SE,135,3.1,6.0,89,0.00,,,0.00,pywws,2013-06-23 20:44:00,
2013-06-23 21:49:00,55.8,52.9,29.98,South,180,3.1,7.6,90,0.00,,,0.00,pywws,2013-06-23 20:49:00,
2013-06-23 21:54:00,55.8,52.9,29.98,West,270,1.6,6.0,90,0.00,,,0.00,pywws,2013-06-23 20:54:00,
2013-06-23 22:00:00,55.6,52.7,29.98,NW,315,2.2,5.4,90,0.00,,,0.00,pywws,2013-06-23 21:00:00,
2013-06-23 22:06:00,55.6,52.7,29.98,East,90,3.8,6.0,90,0.00,,,0.00,pywws,2013-06-23 21:06:00,
2013-06-23 22:11:00,55.6,52.7,29.97,SW,225,2.2,4.5,90,0.00,,,0.00,pywws,2013-06-23 21:11:00,
2013-06-23 22:17:00,55.6,52.7,29.98,NW,315,1.6,3.8,90,0.00,,,0.00,pywws,2013-06-23 21:17:00,
2013-06-23 22:22:00,55.8,52.6,29.98,South,180,0.7,4.5,89,0.00,,,0.00,pywws,2013-06-23 21:22:00,
2013-06-23 22:28:00,55.9,52.7,29.98,West,270,1.6,3.8,89,0.00,,,0.00,pywws,2013-06-23 21:28:00,
2013-06-23 22:34:00,55.9,52.4,29.98,NW,315,2.2,4.5,88,0.00,,,0.00,pywws,2013-06-23 21:34:00,
2013-06-23 22:39:00,55.8,51.9,29.98,SW,225,2.2,6.0,87,0.00,,,0.00,pywws,2013-06-23 21:39:00,
2013-06-23 22:44:00,55.8,51.9,29.98,SW,225,3.1,4.5,87,0.00,,,0.00,pywws,2013-06-23 21:44:00,
2013-06-23 22:50:00,55.6,51.8,29.99,SW,225,2.2,4.5,87,0.00,,,0.00,pywws,2013-06-23 21:50:00,
2013-06-23 22:55:00,55.4,51.6,29.99,NW,315,3.8,6.9,87,0.00,,,0.00,pywws,2013-06-23 21:55:00,
2013-06-23 23:00:00,55.2,51.4,29.99,WNW,293,2.2,5.4,87,0.00,,,0.00,pywws,2013-06-23 22:00:00,
2013-06-23 23:06:00,55.0,51.2,29.99,SSE,158,3.1,6.9,87,0.00,,,0.00,pywws,2013-06-23 22:06:00,
2013-06-23 23:11:00,55.0,51.2,30.00,SW,225,3.8,6.9,87,0.00,,,0.00,pywws,2013-06-23 22:11:00,
2013-06-23 23:13:00,54.9,51.1,30.00,NW,315,2.2,5.4,87,0.00,,,0.00,pywws,2013-06-23 22:13:00,
2013-06-23 23:18:00,54.7,50.9,30.00,West,270,1.6,2.2,87,0.00,,,0.00,pywws,2013-06-23 22:18:00,
2013-06-23 23:24:00,54.5,50.7,30.01,West,270,2.2,3.8,87,0.00,,,0.00,pywws,2013-06-23 22:24:00,
2013-06-23 23:29:00,54.5,51.0,30.01,North,0,2.2,5.4,88,0.00,,,0.00,pywws,2013-06-23 22:29:00,
2013-06-23 23:34:00,54.3,50.8,30.01,NW,315,3.1,8.3,88,0.00,,,0.00,pywws,2013-06-23 22:34:00,
2013-06-23 23:39:00,54.3,50.8,30.01,West,270,1.6,4.5,88,0.00,,,0.00,pywws,2013-06-23 22:39:00,
2013-06-23 23:44:00,54.3,50.8,30.01,NW,315,1.6,3.8,88,0.00,,,0.00,pywws,2013-06-23 22:44:00,
2013-06-23 23:49:00,54.3,50.8,30.01,NW,315,0.7,3.8,88,0.00,,,0.00,pywws,2013-06-23 22:49:00,
2013-06-23 23:54:00,54.1,50.7,30.01,South,180,1.6,4.5,88,0.00,,,0.00,pywws,2013-06-23 22:54:00,
2013-06-23 23:59:00,54.0,50.8,30.01,West,270,0.7,3.1,89,0.00,,,0.00,pywws,2013-06-23 22:59:00,